Location: Newark
(44.6028°N, 124.0883°W)
Time: 12:47:23
(UTC+00:00)

O/OREOS (USA 219) - Visible Passes

Search period start: 13 December 2019 00:00
Search period end: 23 December 2019 00:00
Orbit: 621 x 646 km, 72.0° (Epoch: 22 May)

Date Brightness Start Highest point End Pass type
(mag) Time Alt. Az. Time Alt. Az. Time Alt. Az.
13 Dec ? 13:16:05 10° NNE 13:17:18 11° NE 13:18:31 10° ENE visible
13 Dec ? 14:53:00 10° NNW 14:57:37 71° ENE 15:02:09 10° SSE visible
14 Dec ? 13:36:28 10° N 13:39:52 20° NE 13:43:14 10° E visible
15 Dec ? 13:57:57 10° N 14:02:15 37° ENE 14:06:30 10° SE visible
16 Dec ? 12:42:30 10° NNE 12:44:11 12° NE 12:45:55 10° ENE visible
16 Dec ? 14:19:58 11° NNW 14:24:26 79° ENE 14:28:59 10° SSE visible
17 Dec ? 13:04:38 16° NNE 13:06:45 22° NE 13:10:16 10° ESE visible
17 Dec ? 14:42:07 11° NW 14:46:25 48° WSW 14:50:46 10° S visible
18 Dec ? 13:26:51 24° N 13:29:06 41° ENE 13:33:24 10° SE visible
18 Dec ? 15:04:42 10° NW 15:08:13 22° WSW 15:11:44 10° SSW visible
19 Dec ? 12:11:39 13° NE 12:11:39 13° NE 12:13:11 10° ENE visible
19 Dec ? 13:49:08 32° NNW 13:51:15 87° ENE 13:55:47 10° SSE visible
20 Dec ? 12:34:00 23° ENE 12:34:00 23° ENE 12:37:16 10° ESE visible
20 Dec ? 14:11:30 30° WNW 14:13:12 42° WSW 14:17:29 10° S visible
21 Dec ? 12:56:27 43° E 12:56:27 43° E 13:00:18 10° SE visible
21 Dec ? 14:33:58 19° W 14:34:59 20° W 14:38:17 10° SSW visible
22 Dec ? 03:05:30 10° S 03:06:09 14° S 03:06:09 14° S visible
22 Dec ? 13:18:59 56° SSE 13:18:59 56° SSE 13:22:35 10° SSE visible
